[[{"header":{"parameterUnit":"m.s-1","parameterCategory":1,"la1":30.2991,"la2":30.254,"lo1":-89.0895,"lo2":-89.0444,"dy":0.0017,"dx":0.0017,"nx":28,"ny":28,"refTime":"2023-07-18T03:00:00:Z","depth":0,"parameterNumber":2,"parameterNumberName":"U-component_of_WINDS"},"data":[0,0,0,0,0,0,0,0,0,0,0,0,0,0,0,0,0,0,0,0,0,0,0,0,0,0,0,0,0,0,0,0,0,0,0,0,0,0,0,0,0,0,0,0,0,0,0,0,0,0,0,0,0,0,0,0,0,0,3.5415,3.5416,0,3.5525,3.5526,3.5527,3.5465,3.5462,3.5459,3.5456,3.557,3.5576,3.5582,0,0,0,0,0,0,0,0,0,0,0,0,0,3.5152,3.5157,3.5415,3.5417,3.5418,3.5525,3.5526,3.5528,3.5465,3.5462,3.5458,3.5454,3.5568,3.5575,3.5582,0,0,0,0,0,0,0,0,0,0,0,0,0,3.5264,3.5159,3.5415,3.54,3.5399,3.5524,3.5526,3.5528,3.5466,3.5461,3.5457,3.5453,3.5566,3.5574,3.5583,3.573,0,0,3.561,3.5614,0,0,0,0,0,0,0,0,3.5258,3.5274,3.5401,3.5401,3.5401,3.5476,3.5475,3.5596,3.5467,3.5441,3.5456,3.545,3.5543,3.5553,3.5584,3.5735,3.574,3.5611,3.5616,3.562,3.5623,0,0,0,0,0,0,0,3.525,3.5269,3.5459,3.5402,3.5403,3.5387,3.5398,3.5498,3.5516,3.5443,3.5439,3.5452,3.5542,3.5576,3.5586,3.5742,3.5611,3.5619,3.5624,3.5628,3.6015,3.602,0,0,0,0,0,0,3.5243,3.5263,3.5455,3.5462,3.5316,3.5396,3.5408,3.5457,3.5515,3.5519,3.5456,3.5449,3.5563,3.5576,3.559,3.5762,3.562,3.5628,3.5633,3.601,3.6016,3.6021,0,0,0,0,0,0,3.5238,3.5261,3.5451,3.5361,3.5384,3.5405,3.5461,3.5461,3.5495,3.5525,3.5528,3.5487,3.556,3.5577,3.5694,3.5766,3.5632,3.564,3.6004,3.6012,3.6019,3.6111,0,0,0,0,0,0,3.5231,3.526,3.5316,3.5363,3.5389,3.5554,3.5465,3.5467,3.551,3.5502,3.5555,3.5559,3.5557,3.5682,3.5703,3.5775,3.5647,3.5998,3.6007,3.6016,3.6101,3.612,3.6137,0,0,0,0,0,3.5221,3.5339,3.5319,3.5343,3.546,3.5558,3.5573,3.5568,3.5516,3.5572,3.5591,3.5558,3.5755,3.5694,3.5718,3.5794,3.5993,3.6005,3.6015,3.6093,3.6117,3.6136,0,0,0,0,0,0,3.5301,3.5345,3.5323,3.546,3.5505,3.5547,3.5618,3.5593,3.5656,3.5645,3.5637,3.5649,3.577,3.5794,3.5726,3.5937,3.5866,3.5882,3.5917,3.5939,3.5956,3.5947,3.5655,0,0,0,0,0,3.5334,3.541,3.5444,3.5561,3.5585,3.5598,3.5641,3.5632,3.568,3.5699,3.5727,3.5774,3.5846,3.5894,3.5963,3.6105,3.6114,3.6169,3.6186,3.62,3.6214,3.6287,3.6311,3.6058,3.6058,3.6058,0,0,3.5404,3.5437,3.5486,3.5578,3.5612,3.569,3.5615,3.5702,3.5759,3.5713,3.5823,3.5845,3.5898,3.6027,3.6085,3.605,3.6286,3.6215,3.6226,3.6232,3.6301,3.6325,3.6347,3.6066,3.6064,3.6063,0,0,3.5571,3.5605,3.5703,3.5739,3.5791,3.5799,3.5822,3.5868,3.588,3.5991,3.5957,3.6025,3.6151,3.6188,3.6224,3.6401,3.6371,3.6424,3.6515,3.6587,3.6606,3.6624,3.6684,3.6706,3.6438,3.6438,3.6438,0,3.5651,3.5767,3.5758,3.5846,3.5886,3.5846,3.5945,3.5981,3.6054,3.6082,3.6042,3.6196,3.6229,3.6364,3.6407,3.6438,3.6463,3.6417,3.6604,3.6622,3.6638,3.6695,3.6718,3.6444,3.6443,3.6442,3.6442,0,3.5861,3.5942,3.6016,3.6084,3.6133,3.6227,3.6231,3.6282,3.6269,3.628,3.6392,3.6429,3.6503,3.6535,3.6524,3.6668,3.6644,3.6605,3.6533,3.6668,3.6721,3.6744,3.6452,3.645,3.6448,3.6447,0,0,3.6082,3.6142,3.6169,3.6198,3.6252,3.6314,3.6405,3.6475,3.6517,3.6569,3.6643,3.6749,3.6711,3.6751,3.6744,3.6807,3.6941,3.6759,3.676,3.6789,3.7098,3.7125,3.7151,3.6922,3.6926,3.6929,3.7092,0,3.6249,3.6407,3.64,3.6547,3.662,3.6581,3.666,3.6701,3.6713,3.6777,3.679,3.6864,3.6811,3.6834,3.6895,3.6912,3.7002,3.69,3.6989,3.6993,3.6975,3.718,3.721,3.7362,3.7114,3.7117,3.712,0,3.6466,3.6522,3.6675,3.6715,3.6745,3.6816,3.6878,3.6939,3.6984,3.6988,3.7032,3.7014,3.7104,3.703,3.7153,3.7084,3.712,3.7134,3.7139,3.7146,3.7063,3.7189,3.7411,3.7433,3.7153,3.7151,3.7148,0,3.6608,3.6722,3.6827,3.6854,3.6903,3.6953,3.6976,3.7016,3.7058,3.7113,3.7139,3.7204,3.7239,3.729,3.7289,3.7236,3.7412,3.7339,3.7417,3.7417,3.7454,3.7452,3.7682,3.7482,3.7482,3.7481,3.7481,0,3.6794,3.6889,3.6891,3.6956,3.706,3.7051,3.7154,3.7172,3.7207,3.7274,3.7246,3.7309,3.7305,3.7369,3.7369,3.7469,3.7486,3.7491,3.7489,3.7492,3.7491,3.7514,3.7503,3.7487,3.7486,3.7485,3.7484,0,3.697,3.6975,3.7087,3.7123,3.7135,3.721,3.7241,3.7301,3.731,3.7395,3.7414,3.7428,3.7501,3.7506,3.7591,3.7591,3.7711,3.7699,3.7695,3.7692,3.7768,3.776,3.802,3.8052,3.7833,3.7835,3.7837,0,3.7087,3.7159,3.7202,3.7244,3.7269,3.7338,3.7379,3.7373,3.7417,3.7471,3.7525,3.7595,3.765,3.7769,3.7787,3.7851,3.7838,3.7925,3.7848,3.7847,3.7836,3.7831,3.7836,3.794,3.7942,3.7944,3.7946,0,3.7294,3.7292,3.7353,3.7414,3.7463,3.7511,3.7556,3.7592,3.759,3.7641,3.7715,3.7758,3.7842,3.7911,3.7973,3.7996,3.797,3.797,3.799,3.7993,3.7986,3.7987,3.7733,3.7964,3.7962,3.796,3.7959,3.7959,3.7442,3.7503,3.7541,3.7609,3.7641,3.7682,3.774,3.7755,3.7816,3.7883,3.7876,3.7957,3.7997,3.8077,3.8104,3.8167,3.8137,3.8168,3.8175,3.8182,3.8189,3.7978,3.8178,3.8178,3.8177,3.8177,3.8177,0,3.7645,3.7668,3.773,3.7791,3.7844,3.7814,3.7861,3.7906,3.7977,3.8016,3.8071,3.8153,3.8219,3.8241,3.8305,3.835,3.8339,3.8367,3.8362,3.8367,3.8213,3.8187,3.8374,3.8374,3.8374,3.8374,3.8374,3.8374,3.7757,3.7856,3.7858,3.7972,3.7994,3.8072,3.81,3.8138,3.8168,3.8261,3.8315,3.8329,3.836,3.8425,3.8483,3.8488,3.8512,3.8543,3.8543,3.8398,3.8378,3.8359,3.8335,3.8549,3.8549,3.8691,3.8692,3.8693]},{"header":{"parameterUnit":"m.s-1","parameterCategory":1,"la1":30.2991,"la2":30.254,"lo1":-89.0895,"lo2":-89.0444,"dy":0.0017,"dx":0.0017,"nx":28,"ny":28,"refTime":"2023-07-18T03:00:00:Z","depth":0,"parameterNumber":3,"parameterNumberName":"V-component_of_WINDS"},"data":[0,0,0,0,0,0,0,0,0,0,0,0,0,0,0,0,0,0,0,0,0,0,0,0,0,0,0,0,0,0,0,0,0,0,0,0,0,0,0,0,0,0,0,0,0,0,0,0,0,0,0,0,0,0,0,0,0,0,1.6849,1.685,0,1.6942,1.6943,1.6944,1.6957,1.6956,1.6955,1.6954,1.7046,1.7049,1.7052,0,0,0,0,0,0,0,0,0,0,0,0,0,1.6679,1.6682,1.6849,1.685,1.6851,1.6941,1.6943,1.6944,1.6957,1.6956,1.6955,1.6954,1.7045,1.7049,1.7053,0,0,0,0,0,0,0,0,0,0,0,0,0,1.676,1.6683,1.6849,1.6869,1.6871,1.6941,1.6943,1.6944,1.6957,1.6956,1.6954,1.6953,1.7044,1.7048,1.7053,1.7109,0,0,1.7068,1.707,0,0,0,0,0,0,0,0,1.6756,1.6767,1.6864,1.6867,1.687,1.6936,1.6917,1.6999,1.6957,1.6924,1.6954,1.6953,1.701,1.7018,1.7038,1.7113,1.7117,1.7069,1.7072,1.7074,1.7075,0,0,0,0,0,0,0,1.675,1.6763,1.6885,1.6866,1.687,1.6872,1.6882,1.6932,1.6973,1.6927,1.6928,1.6939,1.7012,1.7033,1.704,1.7119,1.7068,1.7073,1.7076,1.7078,1.7242,1.7244,0,0,0,0,0,0,1.6741,1.6758,1.6883,1.6888,1.6809,1.6876,1.6887,1.6916,1.6973,1.698,1.694,1.6939,1.7026,1.7035,1.7044,1.7112,1.7074,1.7078,1.7081,1.7241,1.7243,1.7244,0,0,0,0,0,0,1.6738,1.6752,1.6879,1.6823,1.684,1.688,1.6913,1.6919,1.6941,1.6983,1.699,1.6955,1.7025,1.7037,1.7092,1.7115,1.708,1.7085,1.7239,1.7241,1.7243,1.7249,0,0,0,0,0,0,1.6733,1.6751,1.6774,1.6824,1.6843,1.6927,1.6914,1.6922,1.6949,1.6949,1.6999,1.7005,1.7025,1.7085,1.7097,1.7121,1.7089,1.7237,1.724,1.7243,1.7247,1.7251,1.7254,0,0,0,0,0,1.6727,1.6771,1.6775,1.679,1.6872,1.6929,1.6939,1.6962,1.6951,1.6973,1.7,1.7004,1.7111,1.7091,1.7105,1.713,1.7236,1.7239,1.7243,1.7245,1.725,1.7254,0,0,0,0,0,0,1.6722,1.6778,1.6783,1.6845,1.6882,1.6931,1.696,1.6966,1.7007,1.7005,1.703,1.7041,1.7095,1.7118,1.7095,1.7186,1.7172,1.7178,1.7169,1.7174,1.7178,1.7171,1.7093,0,0,0,0,0,1.6728,1.6771,1.6817,1.6867,1.6886,1.692,1.6945,1.6959,1.6998,1.7014,1.7045,1.7081,1.7123,1.715,1.7191,1.725,1.726,1.7274,1.7278,1.7281,1.7286,1.7317,1.7324,1.7255,1.7255,1.7255,0,0,1.6741,1.6777,1.6802,1.6867,1.6898,1.694,1.6933,1.6978,1.7009,1.702,1.7075,1.7099,1.7141,1.7198,1.7225,1.7219,1.7307,1.7285,1.7287,1.729,1.7321,1.7328,1.7333,1.7257,1.7257,1.7256,0,0,1.6787,1.6819,1.6864,1.6894,1.6941,1.6962,1.6973,1.7021,1.7037,1.7093,1.7101,1.7138,1.721,1.7239,1.7264,1.7319,1.7323,1.7331,1.7351,1.7381,1.7387,1.7392,1.741,1.7417,1.7336,1.7336,1.7336,0,1.6797,1.6862,1.6886,1.6931,1.6958,1.6971,1.7016,1.7044,1.71,1.7118,1.7111,1.72,1.723,1.7294,1.7307,1.7327,1.7338,1.7326,1.7384,1.7389,1.7394,1.7412,1.7419,1.7337,1.7336,1.7336,1.7336,0,1.6872,1.6917,1.6948,1.7003,1.7034,1.7078,1.7107,1.7135,1.7146,1.7168,1.7223,1.7259,1.7307,1.7323,1.7334,1.7388,1.7382,1.7379,1.7366,1.7401,1.7418,1.7426,1.7337,1.7337,1.7337,1.7337,0,0,1.6918,1.6985,1.6996,1.702,1.7072,1.7106,1.715,1.7198,1.7221,1.7259,1.7296,1.7355,1.7352,1.738,1.7394,1.7421,1.7461,1.7414,1.7416,1.7421,1.7521,1.7523,1.753,1.7464,1.7465,1.7466,1.7517,0,1.6969,1.705,1.7072,1.7139,1.718,1.7192,1.723,1.7265,1.7286,1.7323,1.7346,1.7388,1.7381,1.7398,1.7425,1.745,1.7481,1.7447,1.7497,1.7498,1.7486,1.754,1.7542,1.7588,1.7524,1.7525,1.7526,0,1.704,1.708,1.7152,1.7197,1.7215,1.7249,1.7293,1.7329,1.7367,1.7381,1.7411,1.7422,1.7467,1.7451,1.7512,1.7488,1.751,1.7525,1.7528,1.7533,1.7514,1.7546,1.7604,1.761,1.7537,1.7536,1.7536,0,1.7065,1.7137,1.7189,1.721,1.7264,1.7287,1.731,1.7348,1.7375,1.7413,1.743,1.7472,1.7496,1.7528,1.7549,1.7536,1.7608,1.7594,1.7619,1.7619,1.7634,1.7633,1.7696,1.7649,1.7649,1.7649,1.7648,0,1.7119,1.7163,1.7201,1.7233,1.7281,1.7305,1.7352,1.7375,1.7408,1.7444,1.7456,1.7489,1.7516,1.7552,1.7569,1.7616,1.7626,1.7638,1.7642,1.7637,1.7635,1.7651,1.7648,1.765,1.765,1.765,1.7649,0,1.7156,1.7183,1.7241,1.7287,1.7299,1.7333,1.7371,1.7402,1.7424,1.7468,1.748,1.7513,1.7556,1.7581,1.7635,1.7646,1.7698,1.7701,1.7686,1.7687,1.7711,1.7708,1.7786,1.7797,1.7743,1.7743,1.7744,0,1.7189,1.7222,1.7272,1.7297,1.7321,1.7361,1.7388,1.7413,1.744,1.7486,1.7511,1.7554,1.7591,1.7658,1.7686,1.7727,1.773,1.7755,1.7737,1.773,1.773,1.7727,1.773,1.7758,1.7758,1.7759,1.7759,0,1.7244,1.7255,1.7295,1.7339,1.7371,1.7406,1.7441,1.7461,1.749,1.752,1.7565,1.7593,1.7648,1.769,1.7733,1.7756,1.7762,1.7765,1.7772,1.7767,1.7757,1.7762,1.7694,1.7763,1.7762,1.7762,1.7762,1.7762,1.7279,1.7309,1.7348,1.7391,1.742,1.7452,1.7483,1.7508,1.7546,1.7594,1.7605,1.7651,1.7687,1.7746,1.7769,1.7804,1.78,1.7812,1.7815,1.7817,1.7817,1.7751,1.7812,1.7812,1.7812,1.7812,1.7812,0,1.7334,1.7359,1.7399,1.7448,1.7481,1.7485,1.7523,1.7551,1.7592,1.7625,1.7661,1.7711,1.7752,1.7783,1.7825,1.7847,1.7851,1.7857,1.7855,1.786,1.7819,1.7808,1.7853,1.7853,1.7853,1.7853,1.7853,1.7853,1.7366,1.7417,1.7433,1.7497,1.7522,1.7569,1.759,1.7619,1.7646,1.7702,1.7737,1.7757,1.7789,1.7833,1.787,1.7878,1.7892,1.7898,1.7906,1.7868,1.7863,1.7859,1.7848,1.7901,1.7901,1.7944,1.7945,1.7945]}]]